TimeCDT,TemperatureF,Dew PointF,Humidity,Sea Level PressureIn,VisibilityMPH,Wind Direction,Wind SpeedMPH,Gust SpeedMPH,PrecipitationIn,Events,Conditions,WindDirDegrees,DateUTC
12:53 AM,48.0,34.0,58,30.29,10.0,Calm,Calm,-,N/A,,Clear,0,2013-04-22 05:53:00
1:53 AM,46.0,36.0,68,30.27,10.0,Calm,Calm,-,N/A,,Clear,0,2013-04-22 06:53:00
2:53 AM,43.0,36.0,76,30.26,10.0,Calm,Calm,-,N/A,,Clear,0,2013-04-22 07:53:00
3:53 AM,41.0,35.1,79,30.26,10.0,Calm,Calm,-,N/A,,Clear,0,2013-04-22 08:53:00
4:53 AM,41.0,35.1,79,30.27,10.0,Calm,Calm,-,N/A,,Clear,0,2013-04-22 09:53:00
5:53 AM,39.9,37.0,89,30.28,10.0,Calm,Calm,-,N/A,,Clear,0,2013-04-22 10:53:00
6:53 AM,43.0,37.0,80,30.29,10.0,Calm,Calm,-,N/A,,Clear,0,2013-04-22 11:53:00
7:53 AM,46.9,39.0,74,30.30,10.0,Calm,Calm,-,N/A,,Clear,0,2013-04-22 12:53:00
8:53 AM,54.0,43.0,66,30.29,10.0,East,3.5,-,N/A,,Clear,100,2013-04-22 13:53:00
9:53 AM,62.1,44.1,52,30.28,10.0,SSW,4.6,-,N/A,,Clear,200,2013-04-22 14:53:00
10:53 AM,68.0,44.1,42,30.28,10.0,SSW,6.9,-,N/A,,Clear,200,2013-04-22 15:53:00
11:53 AM,70.0,44.1,39,30.26,10.0,South,8.1,-,N/A,,Clear,190,2013-04-22 16:53:00
12:53 PM,71.1,44.1,38,30.22,10.0,Variable,5.8,-,N/A,,Scattered Clouds,0,2013-04-22 17:53:00
1:53 PM,71.1,42.1,35,30.19,10.0,SSW,8.1,-,N/A,,Mostly Cloudy,210,2013-04-22 18:53:00
2:53 PM,73.0,43.0,34,30.17,10.0,Variable,5.8,-,N/A,,Partly Cloudy,0,2013-04-22 19:53:00
3:53 PM,69.1,44.1,40,30.14,10.0,ESE,4.6,-,N/A,,Partly Cloudy,120,2013-04-22 20:53:00
4:53 PM,72.0,39.9,31,30.13,10.0,Calm,Calm,-,N/A,,Clear,0,2013-04-22 21:53:00
5:53 PM,71.1,41.0,34,30.12,10.0,ESE,3.5,-,N/A,,Clear,120,2013-04-22 22:53:00
6:53 PM,66.0,43.0,43,30.11,10.0,SE,4.6,-,N/A,,Clear,130,2013-04-22 23:53:00
7:53 PM,64.9,41.0,42,30.11,10.0,SSE,3.5,-,N/A,,Clear,160,2013-04-23 00:53:00
8:53 PM,57.9,45.0,62,30.12,10.0,Calm,Calm,-,N/A,,Clear,0,2013-04-23 01:53:00
9:53 PM,55.0,44.1,67,30.12,10.0,East,3.5,-,N/A,,Clear,90,2013-04-23 02:53:00
10:53 PM,54.0,45.0,72,30.12,10.0,Calm,Calm,-,N/A,,Clear,0,2013-04-23 03:53:00
11:53 PM,50.0,43.0,77,30.12,10.0,Calm,Calm,-,N/A,,Clear,0,2013-04-23 04:53:00